Home   Weather   33°08'N, 117°13'W   Past weeks
Flag for USA

Past Weather in 33°08'N, 117°13'W, USA — Yesterday and Last 2 Weeks

Now
69 °F

Passing clouds.


Feels Like: 69 °F
Forecast: 78 / 60 °F
Wind: 3 mph from South

Location: McClellan-Palomar Airport

Current Time: Sep 23, 2019 at 6:58:05 am

Latest Report: Sep 23, 2019 at 5:06 am


Visibility: 8 mi

Pressure: 29.90 "Hg

Humidity: 84%

Dew Point: 64 °F

Location of 33°08'N, 117°13'WLocation

Past Weather in 33°08'N, 117°13'W — Graph

°F

33°08'N, 117°13'W Temperature Yesterday

Maximum temperature yesterday: 82 °F (at 5:53 pm)
Minimum temperature yesterday: 65 °F (at 5:53 am)
Average temperature yesterday: 72 °F

High & Low Weather Summary for the Past Weeks

 TemperatureHumidityPressure
High84 °F (Sep 14, 3:53 pm)93% (Sep 14, 1:42 am)30.01 "Hg (Sep 14, 1:42 am)
Low62 °F (Sep 20, 5:53 am)40% (Sep 14, 3:53 pm)29.79 "Hg (Sep 21, 4:53 pm)
Average71 °F71%29.88 "Hg
* Reported Sep 8 5:53 am — Sep 23 5:06 am, 33°08'N, 117°13'W. Weather by CustomWeather, © 2019

Note: Actual official high and low records may vary slightly from our data, if they occured in-between our weather recording intervals... More about our weather records

Advertising

33°08'N, 117°13'W Weather History for the Previous 24 Hours

Scroll right to see more
 ConditionsComfort  
Time TempWeatherWind HumidityBarometerVisibility
5:06 am
Mon, Sep 23
69 °FPassing clouds.3 mph84%29.90 "Hg8 mi
4:53 am69 °FPassing clouds.3 mph84%29.89 "Hg8 mi
4:35 am69 °FPassing clouds.3 mph84%29.90 "Hg9 mi
3:53 am70 °FClear.3 mph81%29.88 "Hg10 mi
2:53 am70 °FPassing clouds.5 mph84%29.87 "Hg9 mi
2:00 am71 °FPassing clouds.3 mph81%29.90 "Hg10 mi
12:53 am71 °FClear.5 mph81%29.87 "Hg10 mi
11:53 pm
Sun, Sep 22
72 °FClear.3 mph78%29.88 "Hg10 mi
11:11 pm72 °FPassing clouds.No wind78%29.90 "Hg10 mi
10:53 pm72 °FPassing clouds.3 mph81%29.88 "Hg10 mi
9:53 pm72 °FPassing clouds.No wind81%29.88 "Hg10 mi
9:28 pm72 °FPassing clouds.3 mph81%29.90 "Hg10 mi
8:53 pm73 °FClear.6 mph81%29.88 "Hg10 mi
7:53 pm73 °FClear.5 mph81%29.87 "Hg10 mi
6:53 pm74 °FClear.7 mph79%29.85 "Hg10 mi
5:53 pm82 °FSunny.3 mph55%29.84 "Hg10 mi
4:53 pm79 °FSunny.No wind62%29.84 "Hg10 mi
3:53 pm79 °FSunny.7 mph62%29.85 "Hg10 mi
2:53 pm79 °FSunny.8 mph60%29.85 "Hg10 mi
1:53 pm79 °FSunny.7 mph56%29.85 "Hg10 mi
12:53 pm79 °FSunny.8 mph58%29.86 "Hg10 mi
11:53 am79 °FPartly sunny.7 mph60%29.87 "Hg10 mi
10:53 am79 °FSunny.8 mph58%29.88 "Hg10 mi
9:53 am79 °FPartly sunny.No wind47%29.88 "Hg10 mi
8:53 am73 °FBroken clouds.3 mph57%29.87 "Hg10 mi
8:01 am67 °FBroken clouds.No wind85%29.88 "Hg8 mi
7:31 am67 °FFog.No wind87%29.87 "Hg0 mi
7:23 am67 °FFog.3 mph87%29.87 "Hg1 mi
6:53 am67 °FLow clouds.3 mph81%29.85 "Hg9 mi
6:27 am65 °FPassing clouds.5 mph78%29.86 "Hg10 mi
Weather by CustomWeather, © 2019

See weather overview